Tracking 29892 objects as of 21-Nov-2024
HD Live streaming from Space Station
objects crossing your sky now

STARLINK 1047

Track STARLINK 1047 now!
10-day predictions
STARLINK 1047 is classified as:


NORAD ID: 44752
Int'l Code: 2019-074AR
Perigee: 539.3 km
Apogee: 542.3 km
Inclination: 53.1 °
Period: 95.3 minutes
Semi major axis: 6911 km
RCS: Unknown
Launch date: November 11, 2019
Source: United States (US)
Launch site: AIR FORCE EASTERN TEST RANGE (AFETR)
Your satellite tracking list
Your tracking list is empty




NASA's NSSDC Master Catalog

Two Line Element Set (TLE):
1 44752U 19074AR  24325.60457660  .00024284  00000-0  14569-2 0  9990
2 44752  53.0520 174.1514 0002169 182.3869 177.7112 15.10828979277199
Source of the keplerian elements: AFSPC